contact:dominique.lefevre@mio.osupytheas.fr, maurice.libes@osupytheas.fr, didier.mallarino@osupytheas.fr
Project:EMSO http://www.emso-fr.org/EMSO-France
Depth: 2436.0 m
Title:EMSO Ligure Ouest : Data MII capteur MICROCAT
DateTime_Computer,Latitude,Longitude,Temperature,Conductivity,Pressure,DateTime_Instrument
DateTime_Computer,Latitude,Longitude,degC,S m-1,dbar,DateTime_Instrument
2021-01-21T00:02:26Z,42.805,6.029,13.3006,4.60093,2470.227,2021-1-21T02:03:28Z
2021-01-21T00:05:29Z,42.805,6.029,13.3015,4.60102,2470.217,2021-1-21T02:06:31Z
2021-01-21T00:08:32Z,42.805,6.029,13.3023,4.60062,2470.203,2021-1-21T02:09:34Z
2021-01-21T00:11:36Z,42.805,6.029,13.3036,4.60057,2470.203,2021-1-21T02:12:37Z
2021-01-21T00:14:39Z,42.805,6.029,13.3017,4.60080,2470.24,2021-1-21T02:15:41Z
2021-01-21T00:17:42Z,42.805,6.029,13.3007,4.60056,2470.227,2021-1-21T02:18:44Z
2021-01-21T00:20:45Z,42.805,6.029,13.3010,4.60077,2470.203,2021-1-21T02:21:47Z
2021-01-21T00:23:48Z,42.805,6.029,13.3005,4.60062,2470.217,2021-1-21T02:24:50Z
2021-01-21T00:26:51Z,42.805,6.029,13.3003,4.60045,2470.24,2021-1-21T02:27:53Z
2021-01-21T00:29:54Z,42.805,6.029,13.3012,4.60088,2470.18,2021-1-21T02:30:56Z
2021-01-21T00:32:57Z,42.805,6.029,13.3009,4.60101,2470.25,2021-1-21T02:33:59Z
2021-01-21T00:36:01Z,42.805,6.029,13.3007,4.60063,2470.227,2021-1-21T02:37:02Z
2021-01-21T00:39:04Z,42.805,6.029,13.3011,4.60063,2470.227,2021-1-21T02:40:06Z
2021-01-21T00:42:07Z,42.805,6.029,13.3004,4.60058,2470.24,2021-1-21T02:43:09Z
2021-01-21T00:45:10Z,42.805,6.029,13.3006,4.60052,2470.24,2021-1-21T02:46:12Z
2021-01-21T00:48:13Z,42.805,6.029,13.3009,4.60034,2470.227,2021-1-21T02:49:15Z
2021-01-21T00:51:16Z,42.805,6.029,13.3024,4.60045,2470.231,2021-1-21T02:52:18Z
2021-01-21T00:54:19Z,42.805,6.029,13.3029,4.60069,2470.217,2021-1-21T02:55:21Z
2021-01-21T00:57:22Z,42.805,6.029,13.3019,4.60053,2470.24,2021-1-21T02:58:24Z
2021-01-21T01:00:26Z,42.805,6.029,13.3017,4.60067,2470.227,2021-1-21T03:01:27Z
2021-01-21T01:03:29Z,42.805,6.029,13.3008,4.60101,2470.24,2021-1-21T03:04:31Z
2021-01-21T01:06:32Z,42.805,6.029,13.3006,4.60079,2470.217,2021-1-21T03:07:34Z
2021-01-21T01:09:35Z,42.805,6.029,13.3011,4.60044,2470.203,2021-1-21T03:10:37Z
2021-01-21T01:12:38Z,42.805,6.029,13.3008,4.60052,2470.217,2021-1-21T03:13:40Z
2021-01-21T01:15:41Z,42.805,6.029,13.3014,4.60058,2470.203,2021-1-21T03:16:43Z
2021-01-21T01:18:44Z,42.805,6.029,13.3014,4.60047,2470.24,2021-1-21T03:19:46Z
2021-01-21T01:21:47Z,42.805,6.029,13.3021,4.60067,2470.24,2021-1-21T03:22:49Z
2021-01-21T01:24:51Z,42.805,6.029,13.3019,4.60081,2470.217,2021-1-21T03:25:52Z
2021-01-21T01:27:54Z,42.805,6.029,13.3004,4.60052,2470.194,2021-1-21T03:28:56Z
2021-01-21T01:30:57Z,42.805,6.029,13.3004,4.60042,2470.24,2021-1-21T03:31:59Z
2021-01-21T01:34:00Z,42.805,6.029,13.3004,4.60034,2470.227,2021-1-21T03:35:02Z
2021-01-21T01:37:03Z,42.805,6.029,13.3001,4.60039,2470.203,2021-1-21T03:38:05Z
2021-01-21T01:40:06Z,42.805,6.029,13.3006,4.60025,2470.24,2021-1-21T03:41:08Z
2021-01-21T01:43:09Z,42.805,6.029,13.2998,4.60046,2470.217,2021-1-21T03:44:11Z
2021-01-21T01:46:12Z,42.805,6.029,13.3001,4.60059,2470.203,2021-1-21T03:47:14Z
2021-01-21T01:49:16Z,42.805,6.029,13.3001,4.60052,2470.217,2021-1-21T03:50:17Z
2021-01-21T01:52:19Z,42.805,6.029,13.3004,4.60031,2470.217,2021-1-21T03:53:20Z
2021-01-21T01:55:22Z,42.805,6.029,13.3013,4.60030,2470.227,2021-1-21T03:56:24Z
2021-01-21T01:58:25Z,42.805,6.029,13.3005,4.60033,2470.264,2021-1-21T03:59:27Z
2021-01-21T02:01:28Z,42.805,6.029,13.3008,4.60041,2470.18,2021-1-21T04:02:30Z
2021-01-21T02:04:31Z,42.805,6.029,13.3007,4.60035,2470.217,2021-1-21T04:05:33Z
2021-01-21T02:07:34Z,42.805,6.029,13.3006,4.60040,2470.217,2021-1-21T04:08:36Z
2021-01-21T02:10:37Z,42.805,6.029,13.3009,4.60031,2470.203,2021-1-21T04:11:39Z
2021-01-21T02:13:40Z,42.805,6.029,13.2998,4.60024,2470.264,2021-1-21T04:14:42Z
2021-01-21T02:16:44Z,42.805,6.029,13.3006,4.60029,2470.217,2021-1-21T04:17:45Z
2021-01-21T02:19:47Z,42.805,6.029,13.3006,4.60033,2470.203,2021-1-21T04:20:49Z
2021-01-21T02:22:50Z,42.805,6.029,13.3014,4.60026,2470.171,2021-1-21T04:23:52Z
2021-01-21T02:25:53Z,42.805,6.029,13.3003,4.60031,2470.203,2021-1-21T04:26:55Z
2021-01-21T02:28:56Z,42.805,6.029,13.3000,4.60050,2470.194,2021-1-21T04:29:58Z
2021-01-21T02:31:59Z,42.805,6.029,13.3004,4.60023,2470.18,2021-1-21T04:33:01Z
2021-01-21T02:35:02Z,42.805,6.029,13.3007,4.60022,2470.18,2021-1-21T04:36:04Z
2021-01-21T02:38:05Z,42.805,6.029,13.3005,4.60020,2470.217,2021-1-21T04:39:07Z
2021-01-21T02:41:09Z,42.805,6.029,13.2995,4.60022,2470.194,2021-1-21T04:42:10Z
2021-01-21T02:44:12Z,42.805,6.029,13.3009,4.60025,2470.217,2021-1-21T04:45:14Z
2021-01-21T02:47:15Z,42.805,6.029,13.3006,4.60028,2470.194,2021-1-21T04:48:17Z
2021-01-21T02:50:18Z,42.805,6.029,13.3001,4.60021,2470.203,2021-1-21T04:51:20Z
2021-01-21T02:53:21Z,42.805,6.029,13.3006,4.60045,2470.203,2021-1-21T04:54:23Z
2021-01-21T02:56:24Z,42.805,6.029,13.3006,4.60036,2470.24,2021-1-21T04:57:26Z
2021-01-21T02:59:27Z,42.805,6.029,13.2999,4.60048,2470.217,2021-1-21T05:00:29Z
2021-01-21T03:02:30Z,42.805,6.029,13.3001,4.60029,2470.203,2021-1-21T05:03:32Z
2021-01-21T03:05:34Z,42.805,6.029,13.3001,4.60022,2470.217,2021-1-21T05:06:35Z
2021-01-21T03:08:37Z,42.805,6.029,13.2996,4.60029,2470.18,2021-1-21T05:09:39Z
2021-01-21T03:11:40Z,42.805,6.029,13.3009,4.60035,2470.194,2021-1-21T05:12:42Z
2021-01-21T03:14:43Z,42.805,6.029,13.3004,4.60057,2470.194,2021-1-21T05:15:45Z
2021-01-21T03:17:46Z,42.805,6.029,13.3004,4.60035,2470.217,2021-1-21T05:18:48Z
2021-01-21T03:20:49Z,42.805,6.029,13.3000,4.60044,2470.217,2021-1-21T05:21:51Z
2021-01-21T03:23:52Z,42.805,6.029,13.2997,4.60033,2470.203,2021-1-21T05:24:54Z
2021-01-21T03:26:55Z,42.805,6.029,13.3004,4.60029,2470.217,2021-1-21T05:27:57Z
2021-01-21T03:29:59Z,42.805,6.029,13.3000,4.60024,2470.217,2021-1-21T05:31:00Z
2021-01-21T03:33:02Z,42.805,6.029,13.3003,4.60057,2470.227,2021-1-21T05:34:04Z
2021-01-21T03:36:05Z,42.805,6.029,13.3006,4.60052,2470.24,2021-1-21T05:37:07Z
2021-01-21T03:39:08Z,42.805,6.029,13.3015,4.60055,2470.18,2021-1-21T05:40:10Z
2021-01-21T03:42:11Z,42.805,6.029,13.3015,4.60047,2470.217,2021-1-21T05:43:13Z
2021-01-21T03:45:14Z,42.805,6.029,13.3014,4.60052,2470.227,2021-1-21T05:46:16Z
2021-01-21T03:48:17Z,42.805,6.029,13.3013,4.60051,2470.217,2021-1-21T05:49:19Z
2021-01-21T03:51:20Z,42.805,6.029,13.3009,4.60042,2470.194,2021-1-21T05:52:22Z
2021-01-21T03:54:24Z,42.805,6.029,13.3012,4.60046,2470.203,2021-1-21T05:55:25Z
2021-01-21T03:57:27Z,42.805,6.029,13.3014,4.60035,2470.203,2021-1-21T05:58:29Z
2021-01-21T04:00:30Z,42.805,6.029,13.3004,4.60043,2470.203,2021-1-21T06:01:32Z
2021-01-21T04:03:33Z,42.805,6.029,13.3004,4.60062,2470.203,2021-1-21T06:04:35Z
2021-01-21T04:06:36Z,42.805,6.029,13.3016,4.60049,2470.203,2021-1-21T06:07:38Z
2021-01-21T04:09:39Z,42.805,6.029,13.3013,4.60047,2470.227,2021-1-21T06:10:41Z
2021-01-21T04:12:42Z,42.805,6.029,13.3003,4.60025,2470.203,2021-1-21T06:13:44Z
2021-01-21T04:15:45Z,42.805,6.029,13.3002,4.60028,2470.18,2021-1-21T06:16:47Z
2021-01-21T04:18:48Z,42.805,6.029,13.3003,4.60046,2470.18,2021-1-21T06:19:50Z
2021-01-21T04:21:52Z,42.805,6.029,13.3006,4.60050,2470.203,2021-1-21T06:22:53Z
2021-01-21T04:24:55Z,42.805,6.029,13.3006,4.60046,2470.203,2021-1-21T06:25:57Z
2021-01-21T04:27:58Z,42.805,6.029,13.3008,4.60049,2470.18,2021-1-21T06:29:00Z
2021-01-21T04:31:01Z,42.805,6.029,13.3018,4.60051,2470.194,2021-1-21T06:32:03Z
2021-01-21T04:34:04Z,42.805,6.029,13.3013,4.60052,2470.194,2021-1-21T06:35:06Z
2021-01-21T04:37:07Z,42.805,6.029,13.3021,4.60054,2470.194,2021-1-21T06:38:09Z
2021-01-21T04:40:10Z,42.805,6.029,13.3019,4.60061,2470.203,2021-1-21T06:41:12Z
2021-01-21T04:43:13Z,42.805,6.029,13.3019,4.60052,2470.217,2021-1-21T06:44:15Z
2021-01-21T04:46:17Z,42.805,6.029,13.3009,4.60036,2470.194,2021-1-21T06:47:18Z
2021-01-21T04:49:20Z,42.805,6.029,13.3006,4.60044,2470.203,2021-1-21T06:50:22Z
2021-01-21T04:52:23Z,42.805,6.029,13.3015,4.60047,2470.18,2021-1-21T06:53:25Z
2021-01-21T04:55:26Z,42.805,6.029,13.3009,4.60040,2470.171,2021-1-21T06:56:28Z
2021-01-21T04:58:29Z,42.805,6.029,13.3010,4.60053,2470.24,2021-1-21T06:59:31Z
2021-01-21T05:01:32Z,42.805,6.029,13.3023,4.60050,2470.217,2021-1-21T07:02:34Z
2021-01-21T05:04:35Z,42.805,6.029,13.3032,4.60062,2470.18,2021-1-21T07:05:37Z
2021-01-21T05:07:38Z,42.805,6.029,13.3022,4.60047,2470.18,2021-1-21T07:08:40Z
2021-01-21T05:10:42Z,42.805,6.029,13.3004,4.60047,2470.18,2021-1-21T07:11:43Z
2021-01-21T05:13:45Z,42.805,6.029,13.3008,4.60067,2470.171,2021-1-21T07:14:47Z
2021-01-21T05:16:48Z,42.805,6.029,13.3016,4.60049,2470.24,2021-1-21T07:17:50Z
2021-01-21T05:19:51Z,42.805,6.029,13.3007,4.60039,2470.18,2021-1-21T07:20:53Z
2021-01-21T05:22:54Z,42.805,6.029,13.3004,4.60059,2470.171,2021-1-21T07:23:56Z
2021-01-21T05:25:57Z,42.805,6.029,13.3021,4.60055,2470.156,2021-1-21T07:26:59Z
2021-01-21T05:29:00Z,42.805,6.029,13.3019,4.60034,2470.18,2021-1-21T07:30:02Z
2021-01-21T05:32:03Z,42.805,6.029,13.3015,4.60039,2470.18,2021-1-21T07:33:05Z
2021-01-21T05:35:07Z,42.805,6.029,13.3023,4.60064,2470.18,2021-1-21T07:36:08Z
2021-01-21T05:38:10Z,42.805,6.029,13.3005,4.60062,2470.147,2021-1-21T07:39:12Z
2021-01-21T05:41:13Z,42.805,6.029,13.3000,4.60036,2470.18,2021-1-21T07:42:15Z
2021-01-21T05:44:16Z,42.805,6.029,13.3004,4.60044,2470.156,2021-1-21T07:45:18Z
2021-01-21T05:47:19Z,42.805,6.029,13.3019,4.60044,2470.156,2021-1-21T07:48:21Z
2021-01-21T05:50:22Z,42.805,6.029,13.3014,4.60038,2470.18,2021-1-21T07:51:24Z
2021-01-21T05:53:25Z,42.805,6.029,13.3016,4.60039,2470.18,2021-1-21T07:54:27Z
2021-01-21T05:56:28Z,42.805,6.029,13.3029,4.60050,2470.18,2021-1-21T07:57:30Z
2021-01-21T05:59:32Z,42.805,6.029,13.3018,4.60039,2470.171,2021-1-21T08:00:33Z
2021-01-21T06:02:35Z,42.805,6.029,13.3008,4.60053,2470.156,2021-1-21T08:03:37Z
2021-01-21T06:05:38Z,42.805,6.029,13.3022,4.60042,2470.171,2021-1-21T08:06:40Z
2021-01-21T06:08:41Z,42.805,6.029,13.3003,4.60060,2470.171,2021-1-21T08:09:43Z
2021-01-21T06:11:44Z,42.805,6.029,13.3011,4.60067,2470.166,2021-1-21T08:12:46Z
2021-01-21T06:14:47Z,42.805,6.029,13.2998,4.60039,2470.156,2021-1-21T08:15:49Z
2021-01-21T06:17:50Z,42.805,6.029,13.3004,4.60029,2470.194,2021-1-21T08:18:52Z
2021-01-21T06:20:53Z,42.805,6.029,13.3006,4.60039,2470.18,2021-1-21T08:21:55Z
2021-01-21T06:23:57Z,42.805,6.029,13.3019,4.60031,2470.156,2021-1-21T08:24:58Z
2021-01-21T06:27:00Z,42.805,6.029,13.3024,4.60046,2470.156,2021-1-21T08:28:02Z
2021-01-21T06:30:03Z,42.805,6.029,13.3006,4.60064,2470.156,2021-1-21T08:31:05Z
2021-01-21T06:33:06Z,42.805,6.029,13.3004,4.60057,2470.18,2021-1-21T08:34:08Z
2021-01-21T06:36:09Z,42.805,6.029,13.3004,4.60054,2470.18,2021-1-21T08:37:11Z
2021-01-21T06:39:12Z,42.805,6.029,13.3007,4.60045,2470.171,2021-1-21T08:40:14Z
2021-01-21T06:42:15Z,42.805,6.029,13.3025,4.60053,2470.147,2021-1-21T08:43:17Z
2021-01-21T06:45:19Z,42.805,6.029,13.3006,4.60041,2470.18,2021-1-21T08:46:21Z
2021-01-21T06:48:22Z,42.805,6.029,13.3003,4.60056,2470.156,2021-1-21T08:49:24Z
2021-01-21T06:51:25Z,42.805,6.029,13.3011,4.60039,2470.194,2021-1-21T08:52:27Z
2021-01-21T06:54:28Z,42.805,6.029,13.3002,4.60066,2470.156,2021-1-21T08:55:30Z
2021-01-21T06:57:31Z,42.805,6.029,13.3020,4.60053,2470.133,2021-1-21T08:58:33Z
2021-01-21T07:00:34Z,42.805,6.029,13.3011,4.60061,2470.133,2021-1-21T09:01:36Z
2021-01-21T07:03:37Z,42.805,6.029,13.3004,4.60038,2470.133,2021-1-21T09:04:39Z
2021-01-21T07:06:40Z,42.805,6.029,13.3001,4.60033,2470.156,2021-1-21T09:07:42Z
2021-01-21T07:09:44Z,42.805,6.029,13.2998,4.60061,2470.203,2021-1-21T09:10:45Z
2021-01-21T07:12:47Z,42.805,6.029,13.2998,4.60026,2470.203,2021-1-21T09:13:49Z
2021-01-21T07:15:50Z,42.805,6.029,13.2999,4.60033,2470.18,2021-1-21T09:16:52Z
2021-01-21T07:18:53Z,42.805,6.029,13.3006,4.60039,2470.156,2021-1-21T09:19:55Z
2021-01-21T07:21:56Z,42.805,6.029,13.2998,4.60033,2470.156,2021-1-21T09:22:58Z
2021-01-21T07:24:59Z,42.805,6.029,13.3013,4.60064,2470.171,2021-1-21T09:26:01Z
2021-01-21T07:28:02Z,42.805,6.029,13.3004,4.60036,2470.194,2021-1-21T09:29:04Z
2021-01-21T07:31:05Z,42.805,6.029,13.3003,4.60031,2470.18,2021-1-21T09:32:07Z
2021-01-21T07:34:09Z,42.805,6.029,13.3000,4.60049,2470.203,2021-1-21T09:35:10Z
2021-01-21T07:37:12Z,42.805,6.029,13.3016,4.60047,2470.194,2021-1-21T09:38:14Z
2021-01-21T07:40:15Z,42.805,6.029,13.2998,4.60046,2470.18,2021-1-21T09:41:17Z
2021-01-21T07:43:18Z,42.805,6.029,13.2998,4.60020,2470.18,2021-1-21T09:44:20Z
2021-01-21T07:46:21Z,42.805,6.029,13.3008,4.60053,2470.194,2021-1-21T09:47:23Z
2021-01-21T07:49:24Z,42.805,6.029,13.2995,4.60038,2470.194,2021-1-21T09:50:26Z
2021-01-21T07:52:27Z,42.805,6.029,13.3002,4.60024,2470.156,2021-1-21T09:53:29Z
2021-01-21T07:55:30Z,42.805,6.029,13.3006,4.60041,2470.194,2021-1-21T09:56:32Z
2021-01-21T07:58:34Z,42.805,6.029,13.3003,4.60036,2470.18,2021-1-21T09:59:35Z
2021-01-21T08:01:37Z,42.805,6.029,13.3004,4.60050,2470.171,2021-1-21T10:02:39Z
2021-01-21T08:04:40Z,42.805,6.029,13.2997,4.60062,2470.156,2021-1-21T10:05:42Z
2021-01-21T08:07:43Z,42.805,6.029,13.3006,4.60033,2470.156,2021-1-21T10:08:45Z
2021-01-21T08:10:46Z,42.805,6.029,13.3003,4.60033,2470.18,2021-1-21T10:11:48Z
2021-01-21T08:13:49Z,42.805,6.029,13.3000,4.60019,2470.203,2021-1-21T10:14:51Z
2021-01-21T08:16:52Z,42.805,6.029,13.3009,4.60041,2470.203,2021-1-21T10:17:54Z
2021-01-21T08:19:55Z,42.805,6.029,13.3007,4.60040,2470.194,2021-1-21T10:20:57Z
2021-01-21T08:22:59Z,42.805,6.029,13.3011,4.60026,2470.203,2021-1-21T10:24:00Z
2021-01-21T08:26:02Z,42.805,6.029,13.3004,4.60019,2470.18,2021-1-21T10:27:04Z
2021-01-21T08:29:05Z,42.805,6.029,13.3000,4.60024,2470.203,2021-1-21T10:30:07Z
2021-01-21T08:32:08Z,42.805,6.029,13.3009,4.60039,2470.203,2021-1-21T10:33:10Z
2021-01-21T08:35:11Z,42.805,6.029,13.3009,4.60039,2470.203,2021-1-21T10:36:13Z
2021-01-21T08:38:14Z,42.805,6.029,13.3004,4.60031,2470.203,2021-1-21T10:39:16Z
2021-01-21T08:41:17Z,42.805,6.029,13.3001,4.60038,2470.203,2021-1-21T10:42:19Z
2021-01-21T08:44:20Z,42.805,6.029,13.3000,4.60020,2470.156,2021-1-21T10:45:22Z
2021-01-21T08:47:24Z,42.805,6.029,13.3000,4.60015,2470.227,2021-1-21T10:48:25Z
2021-01-21T08:50:27Z,42.805,6.029,13.3002,4.60019,2470.203,2021-1-21T10:51:29Z
2021-01-21T08:53:30Z,42.805,6.029,13.3000,4.60018,2470.18,2021-1-21T10:54:32Z
2021-01-21T08:56:33Z,42.805,6.029,13.3002,4.60026,2470.203,2021-1-21T10:57:35Z
2021-01-21T08:59:36Z,42.805,6.029,13.2999,4.60025,2470.189,2021-1-21T11:00:38Z
2021-01-21T09:02:39Z,42.805,6.029,13.3005,4.60027,2470.24,2021-1-21T11:03:41Z
2021-01-21T09:05:42Z,42.805,6.029,13.3006,4.60026,2470.25,2021-1-21T11:06:44Z
2021-01-21T09:08:45Z,42.805,6.029,13.3002,4.60028,2470.227,2021-1-21T11:09:47Z
2021-01-21T09:11:49Z,42.805,6.029,13.3001,4.60024,2470.264,2021-1-21T11:12:50Z
2021-01-21T09:14:52Z,42.805,6.029,13.3002,4.60026,2470.208,2021-1-21T11:15:54Z
2021-01-21T09:17:55Z,42.805,6.029,13.3004,4.60016,2470.18,2021-1-21T11:18:57Z
2021-01-21T09:20:58Z,42.805,6.029,13.3003,4.60020,2470.203,2021-1-21T11:22:00Z
2021-01-21T09:24:01Z,42.805,6.029,13.3001,4.60021,2470.203,2021-1-21T11:25:03Z
2021-01-21T09:27:04Z,42.805,6.029,13.3012,4.60024,2470.24,2021-1-21T11:28:06Z
2021-01-21T09:30:07Z,42.805,6.029,13.3004,4.60017,2470.217,2021-1-21T11:31:09Z
2021-01-21T09:33:11Z,42.805,6.029,13.2998,4.60020,2470.203,2021-1-21T11:34:12Z
2021-01-21T09:36:14Z,42.805,6.029,13.2998,4.60010,2470.203,2021-1-21T11:37:16Z
2021-01-21T09:39:17Z,42.805,6.029,13.2998,4.60008,2470.189,2021-1-21T11:40:19Z
2021-01-21T09:42:20Z,42.805,6.029,13.2998,4.60019,2470.264,2021-1-21T11:43:22Z
2021-01-21T09:45:23Z,42.805,6.029,13.2999,4.60019,2470.217,2021-1-21T11:46:25Z
2021-01-21T09:48:26Z,42.805,6.029,13.3006,4.60017,2470.227,2021-1-21T11:49:28Z
2021-01-21T09:51:29Z,42.805,6.029,13.2999,4.60013,2470.227,2021-1-21T11:52:31Z
2021-01-21T09:54:32Z,42.805,6.029,13.3000,4.60025,2470.217,2021-1-21T11:55:34Z
2021-01-21T09:57:36Z,42.805,6.029,13.2998,4.60009,2470.203,2021-1-21T11:58:37Z
2021-01-21T10:00:39Z,42.805,6.029,13.2998,4.60020,2470.25,2021-1-21T12:01:41Z
2021-01-21T10:03:42Z,42.805,6.029,13.3001,4.60027,2470.203,2021-1-21T12:04:44Z
2021-01-21T10:06:45Z,42.805,6.029,13.2996,4.60031,2470.273,2021-1-21T12:07:47Z
2021-01-21T10:09:48Z,42.805,6.029,13.2996,4.60023,2470.264,2021-1-21T12:10:50Z
2021-01-21T10:12:51Z,42.805,6.029,13.3001,4.60014,2470.203,2021-1-21T12:13:53Z
2021-01-21T10:15:54Z,42.805,6.029,13.2998,4.60009,2470.25,2021-1-21T12:16:56Z
2021-01-21T10:18:57Z,42.805,6.029,13.2998,4.60011,2470.25,2021-1-21T12:19:59Z
2021-01-21T10:22:01Z,42.805,6.029,13.2998,4.60011,2470.18,2021-1-21T12:23:02Z
2021-01-21T10:25:04Z,42.805,6.029,13.3000,4.60017,2470.24,2021-1-21T12:26:06Z
2021-01-21T10:28:07Z,42.805,6.029,13.2998,4.60026,2470.264,2021-1-21T12:29:09Z
2021-01-21T10:31:10Z,42.805,6.029,13.2999,4.60010,2470.24,2021-1-21T12:32:12Z
2021-01-21T10:34:13Z,42.805,6.029,13.2998,4.60016,2470.264,2021-1-21T12:35:15Z
2021-01-21T10:37:16Z,42.805,6.029,13.3003,4.60028,2470.273,2021-1-21T12:38:18Z
2021-01-21T10:40:19Z,42.805,6.029,13.3007,4.60021,2470.25,2021-1-21T12:41:21Z
2021-01-21T10:43:22Z,42.805,6.029,13.2996,4.60019,2470.25,2021-1-21T12:44:24Z
2021-01-21T10:46:26Z,42.805,6.029,13.3003,4.60044,2470.227,2021-1-21T12:47:27Z
2021-01-21T10:49:29Z,42.805,6.029,13.3000,4.60035,2470.264,2021-1-21T12:50:31Z
2021-01-21T10:52:32Z,42.805,6.029,13.3000,4.60021,2470.31,2021-1-21T12:53:34Z
2021-01-21T10:55:35Z,42.805,6.029,13.3004,4.60021,2470.227,2021-1-21T12:56:37Z
2021-01-21T10:58:38Z,42.805,6.029,13.3000,4.60021,2470.273,2021-1-21T12:59:40Z
2021-01-21T11:01:41Z,42.805,6.029,13.3010,4.60029,2470.264,2021-1-21T13:02:43Z
2021-01-21T11:04:44Z,42.805,6.029,13.3003,4.60015,2470.227,2021-1-21T13:05:46Z
2021-01-21T11:07:47Z,42.805,6.029,13.3005,4.60026,2470.287,2021-1-21T13:08:49Z
2021-01-21T11:10:51Z,42.805,6.029,13.3011,4.60029,2470.334,2021-1-21T13:11:52Z
2021-01-21T11:13:54Z,42.805,6.029,13.3009,4.60025,2470.31,2021-1-21T13:14:56Z
2021-01-21T11:16:57Z,42.805,6.029,13.2998,4.60039,2470.31,2021-1-21T13:17:59Z
2021-01-21T11:20:00Z,42.805,6.029,13.3005,4.60031,2470.287,2021-1-21T13:21:02Z
2021-01-21T11:23:03Z,42.805,6.029,13.2996,4.60017,2470.287,2021-1-21T13:24:05Z
2021-01-21T11:26:06Z,42.805,6.029,13.3007,4.60023,2470.25,2021-1-21T13:27:08Z
2021-01-21T11:29:09Z,42.805,6.029,13.3000,4.60021,2470.273,2021-1-21T13:30:11Z
2021-01-21T11:32:13Z,42.805,6.029,13.3010,4.60033,2470.273,2021-1-21T13:33:14Z
2021-01-21T11:35:16Z,42.805,6.029,13.3004,4.60026,2470.287,2021-1-21T13:36:18Z
2021-01-21T11:38:19Z,42.805,6.029,13.2998,4.60026,2470.287,2021-1-21T13:39:21Z
2021-01-21T11:41:22Z,42.805,6.029,13.3009,4.60022,2470.31,2021-1-21T13:42:24Z
2021-01-21T11:44:25Z,42.805,6.029,13.2998,4.60019,2470.31,2021-1-21T13:45:27Z
2021-01-21T11:47:28Z,42.805,6.029,13.2999,4.60019,2470.297,2021-1-21T13:48:30Z
2021-01-21T11:50:31Z,42.805,6.029,13.2998,4.60031,2470.297,2021-1-21T13:51:33Z
2021-01-21T11:53:34Z,42.805,6.029,13.3003,4.60020,2470.26,2021-1-21T13:54:36Z
2021-01-21T11:56:38Z,42.805,6.029,13.3006,4.60021,2470.25,2021-1-21T13:57:39Z
2021-01-21T11:59:41Z,42.805,6.029,13.3004,4.60031,2470.297,2021-1-21T14:00:43Z
2021-01-21T12:02:44Z,42.805,6.029,13.3002,4.60024,2470.297,2021-1-21T14:03:46Z
2021-01-21T12:05:47Z,42.805,6.029,13.2998,4.60015,2470.273,2021-1-21T14:06:49Z
2021-01-21T12:08:50Z,42.805,6.029,13.3000,4.60016,2470.287,2021-1-21T14:09:52Z
2021-01-21T12:11:53Z,42.805,6.029,13.3005,4.60031,2470.264,2021-1-21T14:12:55Z
2021-01-21T12:14:56Z,42.805,6.029,13.2998,4.60033,2470.297,2021-1-21T14:15:58Z
2021-01-21T12:17:59Z,42.805,6.029,13.3000,4.60021,2470.31,2021-1-21T14:19:01Z
2021-01-21T12:21:03Z,42.805,6.029,13.3013,4.60024,2470.273,2021-1-21T14:22:04Z
2021-01-21T12:24:06Z,42.805,6.029,13.2999,4.60029,2470.273,2021-1-21T14:25:08Z
2021-01-21T12:27:09Z,42.805,6.029,13.3000,4.60022,2470.297,2021-1-21T14:28:11Z
2021-01-21T12:30:12Z,42.805,6.029,13.2999,4.60015,2470.273,2021-1-21T14:31:14Z
2021-01-21T12:33:15Z,42.805,6.029,13.3001,4.60045,2470.32,2021-1-21T14:34:17Z
2021-01-21T12:36:18Z,42.805,6.029,13.3000,4.60026,2470.287,2021-1-21T14:37:20Z
2021-01-21T12:39:21Z,42.805,6.029,13.2995,4.60014,2470.297,2021-1-21T14:40:23Z
2021-01-21T12:42:24Z,42.805,6.029,13.2993,4.60020,2470.264,2021-1-21T14:43:26Z
2021-01-21T12:45:28Z,42.805,6.029,13.2998,4.60022,2470.297,2021-1-21T14:46:29Z
2021-01-21T12:48:31Z,42.805,6.029,13.2996,4.60022,2470.227,2021-1-21T14:49:33Z
2021-01-21T12:51:34Z,42.805,6.029,13.2994,4.60021,2470.273,2021-1-21T14:52:36Z
2021-01-21T12:54:37Z,42.805,6.029,13.2996,4.60019,2470.287,2021-1-21T14:55:39Z
2021-01-21T12:57:40Z,42.805,6.029,13.2999,4.60016,2470.273,2021-1-21T14:58:42Z
2021-01-21T13:00:43Z,42.805,6.029,13.2999,4.60016,2470.273,2021-1-21T15:01:45Z
2021-01-21T13:03:46Z,42.805,6.029,13.3003,4.60019,2470.273,2021-1-21T15:04:48Z
2021-01-21T13:06:50Z,42.805,6.029,13.2996,4.60015,2470.287,2021-1-21T15:07:51Z
2021-01-21T13:09:53Z,42.805,6.029,13.2995,4.60009,2470.25,2021-1-21T15:10:55Z
2021-01-21T13:12:56Z,42.805,6.029,13.2999,4.60016,2470.273,2021-1-21T15:13:58Z
2021-01-21T13:15:59Z,42.805,6.029,13.2998,4.60016,2470.287,2021-1-21T15:17:01Z
2021-01-21T13:19:02Z,42.805,6.029,13.2998,4.60020,2470.25,2021-1-21T15:20:04Z
2021-01-21T13:22:05Z,42.805,6.029,13.2996,4.60025,2470.287,2021-1-21T15:23:07Z
2021-01-21T13:25:08Z,42.805,6.029,13.3000,4.60031,2470.273,2021-1-21T15:26:10Z
2021-01-21T13:28:11Z,42.805,6.029,13.2998,4.60031,2470.297,2021-1-21T15:29:13Z
2021-01-21T13:31:15Z,42.805,6.029,13.3004,4.60024,2470.25,2021-1-21T15:32:16Z
2021-01-21T13:34:18Z,42.805,6.029,13.2993,4.60015,2470.273,2021-1-21T15:35:20Z
2021-01-21T13:37:21Z,42.805,6.029,13.2999,4.60019,2470.264,2021-1-21T15:38:23Z
2021-01-21T13:40:24Z,42.805,6.029,13.2999,4.60013,2470.25,2021-1-21T15:41:26Z
2021-01-21T13:43:27Z,42.805,6.029,13.2999,4.60027,2470.25,2021-1-21T15:44:29Z
2021-01-21T13:46:30Z,42.805,6.029,13.2999,4.60029,2470.273,2021-1-21T15:47:32Z
2021-01-21T13:49:33Z,42.805,6.029,13.2996,4.60021,2470.273,2021-1-21T15:50:35Z
2021-01-21T13:52:36Z,42.805,6.029,13.3003,4.60028,2470.273,2021-1-21T15:53:38Z
2021-01-21T13:55:40Z,42.805,6.029,13.3000,4.60042,2470.26,2021-1-21T15:56:41Z
2021-01-21T13:58:43Z,42.805,6.029,13.2997,4.60013,2470.273,2021-1-21T15:59:45Z
2021-01-21T14:01:46Z,42.805,6.029,13.2996,4.60019,2470.25,2021-1-21T16:02:48Z
2021-01-21T14:04:49Z,42.805,6.029,13.2995,4.60014,2470.287,2021-1-21T16:05:51Z
2021-01-21T14:07:52Z,42.805,6.029,13.3003,4.60019,2470.287,2021-1-21T16:08:54Z
2021-01-21T14:10:55Z,42.805,6.029,13.3004,4.60021,2470.236,2021-1-21T16:11:57Z
2021-01-21T14:13:58Z,42.805,6.029,13.3000,4.60014,2470.25,2021-1-21T16:15:00Z
2021-01-21T14:17:01Z,42.805,6.029,13.3000,4.60015,2470.31,2021-1-21T16:18:03Z
2021-01-21T14:20:05Z,42.805,6.029,13.2995,4.60007,2470.273,2021-1-21T16:21:06Z
2021-01-21T14:23:08Z,42.805,6.029,13.2990,4.60011,2470.264,2021-1-21T16:24:10Z
2021-01-21T14:26:11Z,42.805,6.029,13.2996,4.60021,2470.287,2021-1-21T16:27:13Z
2021-01-21T14:29:14Z,42.805,6.029,13.2998,4.60013,2470.273,2021-1-21T16:30:16Z
2021-01-21T14:32:17Z,42.805,6.029,13.2993,4.60006,2470.287,2021-1-21T16:33:19Z
2021-01-21T14:35:20Z,42.805,6.029,13.2998,4.60011,2470.25,2021-1-21T16:36:22Z
2021-01-21T14:38:23Z,42.805,6.029,13.2993,4.60007,2470.273,2021-1-21T16:39:25Z
2021-01-21T14:41:26Z,42.805,6.029,13.3002,4.60014,2470.25,2021-1-21T16:42:28Z
2021-01-21T14:44:30Z,42.805,6.029,13.3006,4.60031,2470.25,2021-1-21T16:45:31Z
2021-01-21T14:47:33Z,42.805,6.029,13.2993,4.60021,2470.273,2021-1-21T16:48:35Z
2021-01-21T14:50:36Z,42.805,6.029,13.2997,4.60016,2470.25,2021-1-21T16:51:38Z
2021-01-21T14:53:39Z,42.805,6.029,13.2996,4.60024,2470.25,2021-1-21T16:54:41Z
2021-01-21T14:56:42Z,42.805,6.029,13.2997,4.60013,2470.264,2021-1-21T16:57:44Z
2021-01-21T14:59:45Z,42.805,6.029,13.2996,4.60016,2470.227,2021-1-21T17:00:47Z
2021-01-21T15:02:48Z,42.805,6.029,13.3000,4.60014,2470.25,2021-1-21T17:03:50Z
2021-01-21T15:05:51Z,42.805,6.029,13.2997,4.60011,2470.273,2021-1-21T17:06:53Z
2021-01-21T15:08:55Z,42.805,6.029,13.2999,4.60019,2470.25,2021-1-21T17:09:56Z
2021-01-21T15:11:58Z,42.805,6.029,13.3006,4.60032,2470.25,2021-1-21T17:13:00Z
2021-01-21T15:15:01Z,42.805,6.029,13.2997,4.60013,2470.25,2021-1-21T17:16:03Z